Location: D�derode
(51.8092°N, 10.1065°E)
Time: 07:04:47
(UTC+00:00)

MOS 1 Rocket - Pass Details

Date: 01 December 2020
Orbit: 614 x 831 km, 97.4° (Epoch: 23 January)

Event Time Altitude Azimuth Distance (km) Brightness Sun altitude
Exits shadow 17:13:28 30° 83° (E) 1,449 4.3 -17.8°
Maximum altitude 17:13:53 31° 92° (E) 1,437 4.4 -17.8°
Drops below altitude 10° 17:18:36 10° 153° (SSE) 2,409 5.9 -18.5°
Sets 17:21:11 0° 164° (SSE) 3,316 6.8 -18.9°
